星链-1261 (STARLINK-1261 )

导读

STARLINK-1261是美国SpaceX公司星链(Starlink)项目中的一颗卫星,于2020年4月22日发射入轨,属于该项目低轨卫星互联网星座组网卫星。星链计划旨在为全球提供高速低延迟互联网服务,这颗卫星是星链早期组网部署的一环,服务于全球通信网络覆盖的构建。

基本信息
目录编号:
45571
目录名称:
STARLINK-1261
国际标识:
2020-025AS
轨道中心:
EARTH
卫星名称:
星链-1261
卫星全名:
星链-1261 (STARLINK-1261 )
卫星状态:
已陨落 最后检测时间 2024-01-12
发射日期:
2020-04-22 UTC
国别 :
美国 (US)
星等 :
--
该卫星已列入 空间交会检测服务 Space Conjunction Data Service (SCDS) ,当前飞行风险评估等级: 无高风险
轨道信息
数据来源 国际轨道数据
星历时间: 2024-01-12T21:31:44+0800
轨道信息已过期974天
半长轴: 6548.047km
偏心率: 0.0006501
轨道倾角: 53.002°
近地点辐角 342.291°
升交点赤经 296.580°
平近点角 140.222°
近地点: 165.655km
远地点: 174.169km
周期: 87.888分钟
每日圈数: 16.384573
详细信息
固有亮度:
5
最大亮度:
2.5
卫星平台:
Starlink V1.0
覆盖范围:
全球
运营商:
太空探索技术公司
运营商所在国:
美国
制造商(研发单位):
太空探索技术公司
制造商所在国:
美国
使用方式:
暂无
卫星简介
星链(Starlink)计划是由太空探索技术公司(SpaceX)提出的一个巨型低轨卫星互联网星座项目,计划在2019年至2024年间在太空搭建由约1.2万颗卫星组成的“星链”网络,其中1584颗将部署在地球上空550千米处的近地轨道,并从2020年开始工作。该卫星已陨落。
与全量物体交会距离演化趋势
与全量物体交会风险概率演化趋势